STARLINK-5305 (55314 NORAD) Tracking and Keplerian Element Data

This shows tracking and keplerian element data for the satellite.

Feedback or suggestion? Click here.




ElementValue
Catalog55314
NameSTARLINK-5305
Epoch Orbit1739
Epoch Day127.11224004
Epoch Year2023
RAAN126.4366
Inclination69.9998
Eccentricity0.0003674
Argument of Perigee260.2655
Mean Anonmoly99.8126
Mean Motion15.69934387
Decay Rate3.16E-06
L11 55314U 23010AX 23127.11224004 .00000316 00000+0 43999-5 0 9991
L22 55314 69.9998 126.4366 0003674 260.2655 99.8126 15.69934387 17394



Live tracking and technical data element details for STARLINK-5305 (NORAD 55314). STARLINK-5305 can be tracked NOW for your location showing map with azimuth and elevation plus other details from your city location.







IsCatalogInMostPopularTable: catalog: 55314, numindb: 1
Update: records affected: 1



GetName: 55314 STARLINK-5305

Hit Count: updated at: Sun, 28 May 2023 06:52:26 GMT